Apalachicola, FL

4:19 PM EST on December 06, 2019 (GMT -0500)
Apalachicola Municipal

Weather History for KAAF - November, 2019

Change the Weather History Date:

Thursday, November 21, 2019

  Actual Average Record
Temperature  
Mean Temperature 57 °F 61 °F  
Max Temperature 67 °F 72 °F 82 °F (1994)
Min Temperature 46 °F 50 °F 28 °F (1937)
Degree Days  
Heating Degree Days 8    
Month to date heating degree days 131  
Since 1 July heating degree days 132  
Cooling Degree Days 0    
Month to date cooling degree days 26  
Year to date cooling degree days 2991  
Growing Degree Days 6 (Base 50)    
Moisture  
Dew Point 47 °F    
Average Humidity 79    
Maximum Humidity 93    
Minimum Humidity 48    
Precipitation  
Precipitation 0.00 in 0.12 in 4.20 in (1985)
Month to date precipitation 1.08 2.44  
Year to date precipitation 41.06 53.31  
Sea Level Pressure  
Sea Level Pressure 30.19 in    
Wind  
Wind Speed 6 mph (East)    
Max Wind Speed 13 mph    
Max Gust Speed 17 mph    
Visibility 8 miles    
Events Fog    
T = Trace of Precipitation, MM = Missing Value Source: NWS Daily Summary

Daily Weather History Graph

Daily Weather History Graph

Search for Another Location

Airport or City:

Astronomy

Nov. 21, 2019 Rise Set
Actual Time 7:09 AM EST 5:42 PM EST
Civil Twilight 6:43 AM EST 6:07 PM EST
Nautical Twilight 6:14 AM EST 6:36 PM EST
Astronomical Twilight 5:46 AM EST 7:05 PM EST
Moon 1:37 AM EST (11/21) 2:40 PM EST (11/21)
Length of Visible Light 11h 23m
Length of Day
10h 32m
Waning Crescent, 30% of the Moon is Illuminated
Nov 21
Waning Crescent
Nov 26
New
Dec 4
First Quarter
Dec 12
Full
Dec 18
Last Quarter

Hourly Weather History & Observations

Time (EST) Temp. Dew Point Humidity Pressure Visibility Wind Dir Wind Speed Gust Speed Precip Events Conditions
12:53 AM 46.9 °F 41.0 °F 80% 30.18 in 10.0 mi ENE 5.8 mph - N/A   Clear
1:53 AM 48.9 °F 39.9 °F 71% 30.17 in 10.0 mi ENE 6.9 mph - N/A   Clear
2:53 AM 48.9 °F 41.0 °F 74% 30.18 in 10.0 mi NE 5.8 mph - N/A   Clear
3:53 AM 48.0 °F 42.1 °F 80% 30.19 in 10.0 mi NE 5.8 mph - N/A   Clear
6:53 AM 48.9 °F 45.0 °F 86% 30.23 in 10.0 mi NE 6.9 mph - N/A   Clear
7:53 AM 51.1 °F 48.0 °F 89% 30.24 in 10.0 mi ENE 5.8 mph - N/A   Clear
9:53 AM 63.0 °F 52.0 °F 67% 30.26 in 10.0 mi East 6.9 mph - N/A   Clear
10:53 AM 66.0 °F 52.0 °F 60% 30.26 in 10.0 mi East 10.4 mph - N/A   Clear
11:53 AM 66.0 °F 53.1 °F 63% 30.25 in 10.0 mi East 8.1 mph - N/A   Clear
12:53 PM 66.9 °F 52.0 °F 59% 30.23 in 10.0 mi East 11.5 mph - N/A   Clear
1:53 PM 66.0 °F 53.1 °F 63% 30.20 in 10.0 mi East 10.4 mph - N/A   Clear
2:53 PM 66.9 °F 54.0 °F 63% 30.18 in 10.0 mi ESE 6.9 mph - N/A   Clear
3:53 PM 64.9 °F 53.1 °F 65% 30.18 in 10.0 mi East 8.1 mph - N/A   Clear
4:53 PM 64.0 °F 53.1 °F 67% 30.17 in 10.0 mi ESE 5.8 mph - N/A   Clear
5:53 PM 59.0 °F 53.1 °F 81% 30.19 in 10.0 mi East 3.5 mph - N/A   Clear
6:53 PM 55.0 °F 51.1 °F 86% 30.19 in 9.0 mi NE 3.5 mph - N/A   Clear
7:53 PM 51.1 °F 48.0 °F 89% 30.19 in 10.0 mi Calm Calm - N/A   Clear
7:57 PM 51.1 °F 48.0 °F 89% 30.19 in 1.0 mi Calm Calm - N/A   Mist
8:04 PM 51.1 °F 48.0 °F 89% 30.19 in 0.8 mi Calm Calm - N/A   Mist
8:08 PM 51.8 °F 48.2 °F 88% 30.19 in 3.0 mi Calm Calm - N/A   Clear
8:19 PM 51.1 °F 46.9 °F 86% 30.19 in 9.0 mi Calm Calm - N/A   Partly Cloudy
8:53 PM 48.9 °F 45.0 °F 86% 30.19 in 8.0 mi ESE 3.5 mph - N/A   Clear
9:17 PM 48.9 °F 45.0 °F 86% 30.19 in 1.2 mi Calm Calm - N/A   Partly Cloudy
9:24 PM 50.0 °F 46.0 °F 86% 30.18 in 0.8 mi Calm Calm - N/A   Mist
9:34 PM 50.0 °F 46.0 °F 86% 30.17 in 0.2 mi Calm Calm - N/A Fog Fog
9:39 PM 48.9 °F 46.0 °F 90% 30.17 in 1.2 mi Calm Calm - N/A   Partly Cloudy
9:53 PM 48.0 °F 45.0 °F 89% 30.17 in 10.0 mi Calm Calm - N/A   Partly Cloudy
10:27 PM 46.4 °F 44.6 °F 93% 30.16 in 10.0 mi Calm Calm - N/A   Mostly Cloudy
10:53 PM 48.0 °F 44.1 °F 86% 30.16 in 10.0 mi Calm Calm - N/A   Scattered Clouds
11:48 PM 46.4 °F 42.8 °F 87% 30.15 in 1.8 mi Calm Calm - N/A   Partly Cloudy
11:53 PM 46.9 °F 44.1 °F 90% 30.16 in 2.0 mi Calm Calm - N/A   Scattered Clouds